SCP
0 0 0 0 0 0 0 0 0 0 0 0 0 0 0 0 0 0 0 0 0 0 0 0 0 0 0 0 0 0 0 0 0 0 0 0 0 0
0 0 0 0 0 0 0 0 0 0 0 0 0 0 0 0 0 0 0 0 0 0 0 0 0 0 0 0 0 0 0 0 0 0 0 0 0 0
0 0 0 0 0 0 0 0 0 0 0 0 0 0 0 0 1 1 0 0 0 0 0 0 0 0 0 0 0 0 0 0 0 0 0 0 0 0
0 0 0 0 0 0 0 0 0 0 0 0 0 0 0 0 0 1 1 1 0 0 0 0 0 0 0 0 0 0 0 0 0 0 0 0 0 0
0 0 0 0 0 0 0 0 0 0 0 0 0 0 0 0 0 0 0 1 1 0 0 0 0 0 0 0 0 0 0 0 0 0 0 0 0 0
0 0 0 0 0 0 0 0 0 0 0 0 0 0 0 0 0 0 0 0 0 0 0 0 0 0 0 0 0 0 0 0 0 0 0 0 0 0
0 0 0 0 0 0 0 0 0 0 0 0 0 0 0 0 0 0 0 0 0 0 0 0 0 0 0 0 0 0 0 0 0 0 0 0 0 0
0 0 0 0 0 0 0 0 0 0 0 0 0 0 0 0 0 0 0 0 0 0 0 0 0 0 0 0 0 0 0 0 0 0 0 0 0 0
0 0 0 0 0 0 0 0 0 0 0 0 0 0 0 0 0 0 0 0 0 0 0 0 0 0 0 0 0 0 0 0 0 0 0 0 0 0
0 0 0 0 0 0 0 0 0 0 0 0 0 0 0 0 0 0 0 0 0 0 0 0 0 0 0 0 0 0 0 0 0 0 0 0 0 0
0 0 0 0 0 0 0 0 0 0 0 0 0 0 0 0 0 0 0 0 0 0 0 0 0 0 0 0 0 0 0 0 0 0 0 0 0 0
0 0 0 0 0 0 0 0 0 0 0 0 0 0 0 0 0 0 0 0 0 0 0 0 0 0 0 0 0 0 0 0 0 0 0 0 0 0
0 0 0 0 0 0 0 0 0 0 0 0 0 0 0 0 0 0 0 0 0 0 0 0 0 0 0 0 0 0 0 0 0 0 0 0 0 0
0 0 0 0 0 0 0 0 0 0 0 0 0 0 0 0 0 0 0 0 0 0 0 0 0 0 0 0 0 0 0 0 0 0 0 0 0 0
0 0 0 0 0 0 0 0 0 0 0 0 0 0 0 0 0 0 0 0 0 0 0 0 0 0 0 0 0 0 0 0 0 0 0 0 0 0
0 0 0 0 0 0 0 0 0 0 0 0 0 0 0 0 0 0 0 0 0 0 0 0 0 0 0 0 0 0 0 0 0 0 0 0 0 0
0 0 0 0 0 0 0 0 0 0 0 0 0 0 0 0 0 0 0 0 0 0 0 0 0 0 0 0 0 0 0 0 0 0 0 0 0 0
0 0 0 0 0 0 0 0 0 0 0 0 0 0 0 0 0 0 0 0 0 0 0 0 0 0 0 0 0 0 0 0 0 0 0 0 0 0
0 0 0 0 0 0 0 0 0 0 0 0 0 0 0 0 0 0 0 0 0 0 0 0 0 0 0 0 0 0 0 0 0 0 0 0 0 0
0 0 0 0 0 0 0 0 0 0 0 0 0 0 0 0 0 0 0 0 0 0 0 0 0 0 0 0 0 0 0 0 0 0 0 0 0 0
0 0 0 0 0 0 0 0 0 0 0 0 0 0 0 0 0 0 0 0 0 0 0 0 0 0 0 0 0 0 0 0 0 0 0 0 0 0
0 0 0 0 0 0 0 0 0 0 0 0 0 0 0 0 0 0 0 0 0 0 0 0 0 0 0 0 0 0 0 0 0 0 0 0 0 0
0 0 0 0 0 0 0 0 0 0 0 0 0 0 0 0 0 0 0 0 0 0 0 0 0 0 0 0 0 0 0 0 0 0 0 0 0 0
Wind_Speed
1 0 0 1 0 1 2 3 3 2 2 2 1 1 1 1 3 2 2 4 5 6 6 6 6 5 5 5 6 6 6 6 6 7 9 9 10 11
1 1 0 0 0 0 1 1 2 3 2 2 1 1 1 1 2 2 2 3 3 4 5 5 5 5 5 5 5 5 6 5 5 6 6 7 8 8
1 1 0 0 0 0 1 1 1 2 2 1 0 0 0 1 1 0 1 1 1 3 4 4 4 4 4 5 5 5 5 6 6 6 6 7 8 8
1 1 1 1 0 0 1 1 1 2 3 1 0 0 0 1 1 1 0 0 0 1 3 3 4 5 5 5 5 5 5 5 5 5 6 7 8 8
2 2 2 1 1 0 1 1 1 1 2 2 1 0 0 1 1 1 1 1 1 1 2 2 3 4 4 5 5 5 5 6 6 6 6 7 8 9
1 2 2 2 2 2 1 1 2 2 2 2 1 1 1 1 2 1 1 1 1 2 2 1 2 3 4 4 5 5 6 7 7 7 7 8 8 9
0 1 1 2 3 3 2 2 2 2 2 2 1 1 0 1 0 0 0 1 2 1 1 2 1 2 2 4 5 6 7 7 7 7 8 8 8 9
1 0 0 0 1 2 2 3 4 4 3 2 2 2 2 2 1 1 1 0 2 2 0 2 1 2 3 3 5 7 7 7 7 8 8 8 9 9
1 1 0 1 1 1 1 2 1 2 4 5 4 4 3 3 3 1 1 1 3 2 0 2 2 2 3 4 6 7 7 7 8 8 8 8 9 9
1 2 2 1 1 2 2 1 1 0 2 3 4 4 4 4 4 4 3 1 2 2 1 1 2 3 4 3 6 7 7 7 7 7 8 8 9 9
1 1 1 1 2 3 3 2 0 2 2 1 2 3 4 4 4 2 1 1 1 2 1 2 2 2 3 3 5 6 7 7 7 8 8 8 8 8
1 1 1 1 2 3 3 2 1 2 1 2 2 2 2 2 4 4 4 3 2 2 2 2 2 1 2 3 3 3 4 6 7 8 9 9 8 4
0 0 1 1 1 1 2 2 3 2 1 1 1 1 1 1 2 2 3 4 3 3 3 2 2 1 2 3 3 3 2 3 3 4 7 8 8 5
1 1 1 1 1 1 0 1 1 0 1 0 0 1 1 2 2 2 2 3 4 5 4 3 2 2 2 2 3 3 3 3 3 3 3 5 6 7
1 1 1 1 1 1 1 1 0 1 1 1 1 1 2 2 1 1 2 1 2 3 3 3 3 2 2 3 3 3 3 3 3 3 3 3 3 3
0 1 1 1 1 1 1 1 0 1 1 1 1 1 1 1 1 1 1 1 1 3 3 2 3 3 2 3 3 4 3 3 3 3 3 3 3 3
1 2 2 2 2 2 1 1 1 0 0 0 0 1 1 1 1 1 1 0 1 2 3 3 2 2 3 3 3 4 4 4 4 4 3 4 4 4
3 1 0 0 1 1 1 1 0 1 1 1 1 1 1 1 2 1 1 1 2 2 3 3 2 2 3 3 5 4 4 4 4 3 2 3 5 4
2 1 1 1 1 1 1 1 1 1 1 1 1 1 1 1 1 1 1 1 2 3 3 2 1 1 2 4 5 4 4 4 3 3 3 3 5 5
1 1 2 2 2 1 1 1 1 1 1 1 1 1 1 1 1 2 2 2 3 3 3 2 2 3 4 4 4 4 4 4 3 3 4 3 4 5
2 1 2 2 2 2 1 1 1 1 1 1 1 2 2 1 2 2 2 3 3 2 3 4 4 5 2 0 2 4 4 5 5 3 3 3 3 3
1 1 1 1 1 1 1 1 1 1 1 1 1 2 2 1 2 3 2 2 2 2 3 3 3 2 0 1 3 4 5 4 4 5 5 4 3 3
2 2 1 1 1 1 1 1 1 1 1 1 2 2 2 2 2 2 2 2 2 2 2 3 2 1 2 2 3 3 4 4 3 3 4 6 6 7
Wind_Direction
160 166 188 266 208 174 160 164 165 186 260 274 288 283 208 184 187 187 198 215 218 220 221 226 233 238 240 237 237 239 246 252 259 263 256 255 257 251
145 122 153 308 23 100 150 160 160 161 198 256 244 253 214 164 154 170 198 213 219 220 220 221 228 234 241 244 244 243 248 252 256 260 260 261 262 262
141 136 181 142 87 32 101 119 145 150 170 256 285 325 103 152 131 178 196 186 221 225 229 233 233 233 240 245 250 251 253 256 257 257 258 258 258 260
175 158 215 176 133 135 113 122 149 153 156 169 339 14 34 216 156 145 109 126 221 229 235 242 238 235 235 240 250 256 258 258 257 258 260 257 255 255
184 185 209 168 174 167 120 138 153 132 132 143 159 22 33 41 65 36 29 7 285 265 246 249 258 256 245 242 240 248 254 255 254 254 257 260 258 257
209 198 189 174 186 182 167 171 148 122 115 121 121 62 36 14 67 57 3 339 312 323 328 302 289 292 272 257 248 249 252 255 254 255 257 257 259 261
273 196 173 167 176 180 175 169 150 139 130 123 126 91 51 42 30 245 262 318 314 309 332 319 316 303 291 276 261 255 254 255 255 256 258 258 259 261
170 224 169 126 161 163 151 149 156 161 169 163 173 183 216 212 200 192 177 53 304 294 28 297 301 287 278 267 271 266 263 261 258 259 259 260 261 261
174 175 147 53 105 128 94 85 109 174 176 170 175 202 201 206 181 189 212 208 238 258 140 286 295 278 274 283 281 270 267 265 267 267 265 264 265 265
153 165 165 186 173 150 132 93 32 295 210 184 188 206 209 202 191 192 197 203 270 281 171 233 275 272 286 285 284 275 274 273 272 271 271 270 269 270
59 87 146 171 189 154 127 126 37 324 317 210 204 213 216 213 196 149 141 125 280 281 232 194 258 280 287 282 284 284 280 275 274 275 274 273 271 273
20 16 43 166 185 168 149 153 188 263 296 332 331 322 283 252 215 189 181 177 208 265 252 195 251 282 304 289 284 287 286 282 278 276 277 277 276 273
88 352 341 21 98 152 158 175 216 222 222 232 287 307 304 281 248 221 197 185 195 237 237 186 217 216 227 283 297 283 273 279 287 282 278 275 271 252
186 226 277 313 351 314 241 237 234 187 117 112 141 257 258 263 260 241 227 226 222 231 237 193 201 204 207 265 285 295 291 278 273 279 279 281 272 259
201 230 264 278 337 336 293 275 116 103 115 145 228 249 245 248 266 294 313 302 294 275 252 219 210 218 203 230 256 270 290 289 268 270 281 278 272 263
50 346 6 35 21 349 348 10 100 164 171 206 248 264 293 318 294 279 286 304 318 308 297 261 229 207 227 240 243 266 264 271 286 283 283 281 275 257
91 52 39 27 15 359 349 333 329 30 358 274 251 273 287 288 278 268 250 264 256 275 297 307 297 256 230 223 250 260 264 269 266 274 282 286 278 264
114 107 218 280 269 271 269 287 285 227 230 221 234 229 239 250 269 278 258 238 256 267 274 282 313 339 338 289 228 245 262 264 270 269 259 273 283 274
127 190 219 232 238 235 225 220 235 235 215 207 231 242 252 260 261 276 276 268 268 268 268 265 245 202 282 295 285 236 236 264 274 280 267 256 268 278
191 210 223 225 213 211 219 225 239 257 249 240 246 250 251 258 269 267 262 257 264 270 280 275 244 221 222 246 267 283 255 244 258 271 275 271 271 283
220 224 225 220 210 207 214 226 233 243 255 251 257 260 257 259 269 268 268 272 270 264 269 271 263 260 243 258 299 293 288 266 248 249 265 279 290 297
204 212 231 223 212 210 209 212 235 257 266 271 276 278 273 264 265 272 274 277 269 261 266 275 295 311 202 241 272 283 293 303 297 282 269 243 237 253
197 199 216 217 211 195 195 209 223 254 259 264 270 271 272 275 280 278 278 275 273 279 284 293 307 299 267 252 267 284 294 300 306 318 310 304 280 271